Погода в Сызрани

Погода в Сызрани : погода сейчас, прогноз погоды и архив. Всё, что Вы хотите узнать о погоде в Сызрани!

Хотите узнать прогноз погоды в Сызрани? Тогда Вам сюда: Погода в Сызрани

Поиск расширенной информации на нашем сайте:

Полезная информация: Актуальная информация горящие туры в Турцию, цены на путевки в Турцию здесь. - Poisk-toura.com

Другие новости

Новости СМИ2

Главная страница сайта

Новости сайта

03.07.2017

Напоминаем, что на нашем специализированном сайте Метеоцентр.Азия вы можете получить высокодетализированные автоматические прогнозы погоды по пунктам России, СНГ и мира в авиационном формате (включающие направление и скорость ветра, видимость, явления погоды, количество и форму облачности, нижнюю и верхнюю границу облачности).

Рекомендуем: Оплата тура онлайн купить тур онлайн. - Guru-tour.ru

Погода в Сызрани - сегодня

Время (UTC), дата Ветер
(°,м/с) 
Видим.   Явления Облачность Т
(°С)
Тd
(°С)
f(%) Тe
(°С)
Pmin
(гПа)
dP
(гПа)
Po
(мм)
O2
(г/м3)
Тmin Tmax R s Состояние
почвы
03 21.05.18 020 (С) 20000 м    10/10 960 м кучево-дожд. 
[Cb calv]
+11.9 +10.5 91 +14  1021.7  1.9  757  290  +11.9      влажная 
09 21.05.18 040 (СВ) 20000 м    4/3 1000 м кучево-дожд., средняя, верхняя 
[Cb calv|Ac trans|Ci fib]
+15.2 +8.1 63 +15  1024  0.8  759  288           
18 21.05.18 030 (СВ) 20000 м    10/0 средняя, верхняя 
[Ac trans|Ci fib]
+13.9 +7.2 64 +15  1026.2  1.2  760  290           
21 21.05.18 030 (СВ) 20000 м    3/0 верхняя 
[Ci fib]
+11.8 +6 68 +12  1027.2  0.9  761  293           
00 22.05.18 030 (СВ) 21000 м    ясно 
+9.1 +5.4 78 +9  1029  1.6  762  296           
06 22.05.18 110 (В) 20000 м    3/0 верхняя 
[Ci fib]
+16.8 +4.3 43 +17  1031.1  764  289           
09 22.05.18 140 (ЮВ) 20000 м    8/0 верхняя 
[Ci fib]
+20.2 +1.4 29 +20  1030.9  -0.1  764  286           
12 22.05.18 130 (ЮВ) 20000 м    8/0 средняя, верхняя 
[Ac trans|Ci fib]
+22.1 +1.7 26 +22  1029.3  -1.5  763  284           
18 22.05.18 340 (С) 20000 м    ясно 
+10.8 +6.1 73 +12  1029.3  0.3  762  295           
21 22.05.18 330 (СЗ) 20000 м    ясно 
+7.5 +5.7 88 +8  1029  -0.4  762  298           
00 23.05.18 360 (С) 20000 м    ясно 
+5.6 +4.8 95 +6  1029.5  0.4  762  300           
03 23.05.18 тихо ()   20000 м    1/0 верхняя 
[Ci fib]
+13.5 +8.1 70 +14  1029.4  0.3  763  291  +5.2        сухая 
06 23.05.18 150 (ЮВ) 20000 м    8/0 верхняя 
[Ci fib]
+21.4 +5.1 34 +21  1029.1  763  284           
09 23.05.18 130 (ЮВ) 20000 м    8/0 верхняя 
[Ci fib]
+24.3 +5.1 29 +24  1027.6  -1.3  762  281           
12 23.05.18 150 (ЮВ) 20000 м    9/4 1000 м кучево-дожд., средняя, верхняя 
[Cb calv|Ac trans|Ci fib]
+25 +3.2 24 +25  1026.1  -1.5  761  280           
18 23.05.18 160 (Ю) 20000 м    8/3 1000 м кучево-дожд., средняя, верхняя 
[Cb calv|Ac trans|Ci fib]
+18.8 +8.5 51 +20  1023.6  -0.9  758  285           
21 23.05.18 340 (С) 20000 м    6/3 1000 м кучево-дожд., верхняя 
[Cb calv|Ci fib]
+14.3 +9.1 71 +16  1022.5  -1.3  758  288           
00 24.05.18 тихо ()   20000 м    9/5 1000 м кучево-дожд., средняя 
[Cb calv|Ac trans]
+12.9 +9.7 81 +14  1021.9  -0.6  757  290           
03 24.05.18 тихо ()   20000 м    9/5 1000 м кучево-дожд., средняя 
[Cb calv|Ac trans]
+16.8 +12.5 76 +21  1021.2  -0.5  757  285  +12.4        сухая 
06 24.05.18 060 (СВ) 20000 м    10/6 600 м кучево-дожд., средняя 
[Cb calv|Ac und]
+19.6 +11.4 59 +24  1020.5  -0.6  756  282           
09 24.05.18 150 (ЮВ) 20000 м    10/4 600 м средняя, верхняя 
[Sc|Ac trans|Ci fib]
+22.3 +11.2 49 +25  1018.9  -1.4  755  279           
12 24.05.18 100 (В) 20000 м    10/3 1000 м средняя, верхняя 
[Sc diur, vesp|Ac trans|Ci fib]
+26.8 +9.5 34 +27  1016.9  -1.8  754  275           
18 24.05.18 040 (СВ) 20000 м    10/6 600 м кучево-дожд., средняя, верхняя 
[Cb calv|Ac trans|Ci fib]
+20.7 +12.4 59 +25  1014.1  -0.7  752  279           
03 25.05.18 020 (С) 20000 м    10/8 800 м средняя 
[Sc|Ac und]
+17.2 +13 76 +24  1014.1  -0.3  751  282  +16.6        сухая 
06 25.05.18 360 (С) 20000 м    10/10 900 м кучево-дожд. 
[Cb calv]
+18.2 +13.4 74 +25  1015.1  752  281           
Время (UTC), дата Ветер
(°,м/с) 
Видим.   Явления Облачность Т
(°С)
Тd
(°С)
f(%) Тe
(°С)
Pmin
(гПа)
dP
(гПа)
Po
(мм)
O2
(г/м3)
Тmin Tmax R s Состояние
почвы

Для получения пояснительной информации подведите курсор к названию столбца.

ПОГОДА в Сызрани - архив

Всё, что Вы хотите узнать о погоде в Сызрани - удобно и подробно!

Выберите нужную дату (начиная с 1 января 2015* года) и нажмите кнопку "Найти".
Будут отображены архивные сводки погоды по пункту Сызрань, начиная с указанной даты.


Отображать данные в формате CSV (для использования в таблицах Excel)


Внимание! Наш архив погоды предназначен исключительно для личного некоммерческого использования в познавательных целях. Если Вам необходимы официальные справки о состоянии погоды (для производственных, юридических, коммерческих и т.п. целей), обращайтесь в органы Росгидромета.

*Примечание: данная дата относится к архиву по метеостанциям СССР (Россия, СНГ, Балтия).
Архив по метеостанциям Зарубежной Европы и Азии (кроме Китая) хранится 10 дней, по другим регионам земного шара (Китай, Африка, Америка, Австралия, Океания) - 1 день.

Сызрань - район местоположения метеостанции


Название, широта, долгота, высота метеостанции:
Сызрань 53.2°ш. 48.4°д. 103 м над ур. моря [Российская Федерация]

Дополнительная информация

В oтличие oт бoльшинства пoгoдных сайтoв мы публикуем пoдрoбную метеoинфoрмацию в детальнoм прoфессиoнальнoм фoрмате.

Характеристики температуры и влажнoсти вoздуха измеряются на высoте 2 м в тени вдали oт зданий и деревьев.
Скoрoсть ветра измеряется на высoте 10 м (на урoвне рoста челoвека скoрoсть ветра ниже в 1.5-2 раза). Если метеoстанция нахoдится в гoрoде или в лесу, тo скoрoсть ветра занижена на 2-4 м/с пo сравнению с oткрытым местoм. Скoрoсть ветра над акватoриями крупных рек и oзёр, а также на вершинах хoлмoв на 2-5 м/с выше, чем в oбычных услoвиях.
Атмoсфернoе давление в разных тoчках местнoсти мoжет значительнo oтличаться oт давления на метеoстанции, в зависимoсти oт услoвий рельефа (при пoдъёме на 10 м давление пoнижается примернo на 1 мм рт.ст.).